START_TIME,STEP,MOV.,P11,t_acc.,P23,t_acc.,P27,t_acc.,A4,t_acc.
1981-08-30 09:00:23.650 ,6,0,0.,4.8,0.,4.8,0.,4.8,0.,4.8
1981-08-30 09:00:28.450 ,6,0,0.,4.8,0.,4.8,0.,4.8,0.,4.8
1981-08-30 09:00:33.250 ,6,0,1.,4.8,0.,4.8,0.,4.8,0.,4.8
1981-08-30 09:00:38.050 ,6,0,0.,4.8,0.,4.8,0.,4.8,0.,4.8
1981-08-30 09:00:42.850 ,6,0,0.,4.8,0.,4.8,0.,4.8,0.,4.8
1981-08-30 09:00:47.650 ,7,0,0.,4.8,0.,4.8,0.,4.8,0.,4.8
1981-08-30 09:00:52.450 ,7,0,0.,4.8,0.,4.8,2.,4.8,0.,4.8
1981-08-30 09:00:57.250 ,7,0,0.,4.8,1.,4.8,0.,4.8,0.,4.8
1981-08-30 09:01:02.050 ,7,0,1.,4.8,0.,4.8,0.,4.8,0.,4.8
1981-08-30 09:01:06.850 ,7,0,3.,4.8,0.,4.8,0.,4.8,0.,4.8
1981-08-30 09:01:11.650 ,7,0,1.,4.8,0.,4.8,0.,4.8,0.,4.8
1981-08-30 09:01:16.450 ,7,0,0.,4.8,0.,4.8,1.,4.8,0.,4.8
1981-08-30 09:01:21.250 ,7,0,0.,4.8,0.,4.8,0.,4.8,0.,4.8
1981-08-30 09:01:26.050 ,7,0,0.,4.8,0.,4.8,0.,4.8,0.,4.8
1981-08-30 09:01:30.850 ,7,0,0.,4.8,0.,4.8,0.,4.8,0.,4.8
1981-08-30 09:01:35.650 ,6,0,0.,4.8,0.,4.8,0.,4.8,0.,4.8
1981-08-30 09:01:40.450 ,6,0,0.,4.8,0.,4.8,0.,4.8,0.,4.8
1981-08-30 09:01:45.250 ,6,0,0.,4.8,0.,4.8,1.,4.8,0.,4.8
1981-08-30 09:01:50.050 ,6,0,0.,4.8,0.,4.8,0.,4.8,0.,4.8
1981-08-30 09:01:54.850 ,6,0,1.,4.8,0.,4.8,0.,4.8,0.,4.8
1981-08-30 09:01:59.650 ,5,0,0.,4.8,0.,4.8,0.,4.8,0.,4.8
1981-08-30 09:02:04.450 ,5,0,0.,4.8,0.,4.8,0.,4.8,0.,4.8
1981-08-30 09:02:09.250 ,5,0,0.,4.8,0.,4.8,1.,4.8,0.,4.8
1981-08-30 09:02:14.050 ,5,0,0.,4.8,0.,4.8,1.,4.8,0.,4.8
1981-08-30 09:02:18.850 ,5,0,0.,4.8,0.,4.8,0.,4.8,0.,4.8
1981-08-30 09:02:23.650 ,4,0,0.,4.8,0.,4.8,0.,4.8,0.,4.8
1981-08-30 09:02:28.450 ,4,0,0.,4.8,0.,4.8,0.,4.8,0.,4.8
1981-08-30 09:02:33.250 ,4,0,0.,4.8,0.,4.8,0.,4.8,0.,4.8
1981-08-30 09:02:38.050 ,4,0,0.,4.8,0.,4.8,0.,4.8,0.,4.8
1981-08-30 09:02:42.850 ,4,0,0.,4.8,0.,4.8,0.,4.8,0.,4.8
1981-08-30 09:02:47.650 ,3,0,2.,4.8,0.,4.8,0.,4.8,0.,4.8
1981-08-30 09:02:52.450 ,3,0,0.,4.8,1.,4.8,0.,4.8,0.,4.8
1981-08-30 09:02:57.250 ,3,0,0.,4.8,0.,4.8,1.,4.8,0.,4.8
1981-08-30 09:03:02.050 ,3,0,0.,4.8,0.,4.8,0.,4.8,0.,4.8
1981-08-30 09:03:06.850 ,3,0,1.,4.8,1.,4.8,0.,4.8,0.,4.8
1981-08-30 09:03:11.650 ,2,0,0.,4.8,0.,4.8,0.,4.8,0.,4.8
1981-08-30 09:03:16.450 ,2,0,1.,4.8,0.,4.8,0.,4.8,0.,4.8
1981-08-30 09:03:21.250 ,2,0,0.,4.8,0.,4.8,0.,4.8,0.,4.8
1981-08-30 09:03:26.050 ,2,0,0.,4.8,0.,4.8,1.,4.8,0.,4.8
1981-08-30 09:03:30.850 ,2,0,0.,4.8,0.,4.8,0.,4.8,0.,4.8
1981-08-30 09:03:35.650 ,1,0,0.,4.8,1.,4.8,0.,4.8,0.,4.8
1981-08-30 09:03:40.450 ,1,0,0.,4.8,0.,4.8,0.,4.8,0.,4.8
1981-08-30 09:03:45.250 ,1,0,0.,4.8,0.,4.8,0.,4.8,0.,4.8
1981-08-30 09:03:50.050 ,1,0,0.,4.8,0.,4.8,0.,4.8,0.,4.8
1981-08-30 09:03:54.850 ,1,0,0.,4.8,0.,4.8,0.,4.8,0.,4.8
1981-08-30 09:03:59.650 ,0,0,0.,4.8,0.,4.8,0.,4.8,0.,4.8
1981-08-30 09:04:04.450 ,0,0,0.,4.8,0.,4.8,0.,4.8,0.,4.8
1981-08-30 09:04:09.250 ,0,0,0.,4.8,0.,4.8,0.,4.8,0.,4.8
1981-08-30 09:04:14.050 ,0,0,0.,4.8,0.,4.8,0.,4.8,0.,4.8
1981-08-30 09:04:18.850 ,0,0,1.,4.8,0.,4.8,0.,4.8,0.,4.8
1981-08-30 09:04:23.650 ,0,0,0.,4.8,0.,4.8,0.,4.8,0.,4.8
1981-08-30 09:04:28.450 ,0,0,0.,4.8,0.,4.8,0.,4.8,0.,4.8
1981-08-30 09:04:33.250 ,0,0,1.,4.8,0.,4.8,0.,4.8,0.,4.8
1981-08-30 09:04:38.050 ,0,0,2.,4.8,0.,4.8,0.,4.8,0.,4.8
1981-08-30 09:04:42.850 ,0,0,1.,4.8,0.,4.8,0.,4.8,0.,4.8
1981-08-30 09:04:47.650 ,1,0,0.,4.8,0.,4.8,0.,4.8,0.,4.8
1981-08-30 09:04:52.450 ,1,0,0.,4.8,0.,4.8,0.,4.8,0.,4.8
1981-08-30 09:04:57.250 ,1,0,0.,4.8,0.,4.8,0.,4.8,0.,4.8
1981-08-30 09:05:02.050 ,1,0,1.,4.8,0.,4.8,0.,4.8,0.,4.8
1981-08-30 09:05:06.850 ,1,0,0.,4.8,0.,4.8,0.,4.8,0.,4.8
1981-08-30 09:05:11.650 ,2,0,0.,4.8,0.,4.8,0.,4.8,0.,4.8
1981-08-30 09:05:16.450 ,2,0,0.,4.8,0.,4.8,0.,4.8,0.,4.8
1981-08-30 09:05:21.250 ,2,0,0.,4.8,0.,4.8,0.,4.8,0.,4.8
1981-08-30 09:05:26.050 ,2,0,0.,4.8,0.,4.8,0.,4.8,0.,4.8
1981-08-30 09:05:30.850 ,2,0,1.,4.8,0.,4.8,0.,4.8,0.,4.8
1981-08-30 09:05:35.650 ,3,0,0.,4.8,0.,4.8,0.,4.8,0.,4.8
1981-08-30 09:05:40.450 ,3,0,1.,4.8,0.,4.8,0.,4.8,0.,4.8
1981-08-30 09:05:45.250 ,3,0,0.,4.8,0.,4.8,0.,4.8,0.,4.8
1981-08-30 09:05:50.050 ,3,0,0.,4.8,0.,4.8,1.,4.8,0.,4.8
1981-08-30 09:05:54.850 ,3,0,0.,4.8,0.,4.8,1.,4.8,0.,4.8
1981-08-30 09:05:59.650 ,3,0,0.,4.8,0.,4.8,0.,4.8,0.,4.8
1981-08-30 09:06:04.450 ,3,0,0.,4.8,0.,4.8,0.,4.8,0.,4.8
1981-08-30 09:06:09.250 ,3,0,0.,4.8,0.,4.8,0.,4.8,0.,4.8
1981-08-30 09:06:14.050 ,3,0,0.,4.8,0.,4.8,0.,4.8,0.,4.8
1981-08-30 09:06:18.850 ,3,0,1.,4.8,0.,4.8,0.,4.8,0.,4.8
1981-08-30 09:06:23.650 ,4,0,0.,4.8,0.,4.8,0.,4.8,0.,4.8
1981-08-30 09:06:28.450 ,4,0,0.,4.8,0.,4.8,0.,4.8,0.,4.8
1981-08-30 09:06:33.250 ,4,0,1.,4.8,0.,4.8,0.,4.8,0.,4.8
1981-08-30 09:06:38.050 ,4,0,2.,4.8,0.,4.8,0.,4.8,0.,4.8
1981-08-30 09:06:42.850 ,4,0,0.,4.8,0.,4.8,0.,4.8,0.,4.8
1981-08-30 09:06:47.650 ,4,0,0.,4.8,0.,4.8,0.,4.8,0.,4.8
1981-08-30 09:06:52.450 ,4,0,0.,4.8,0.,4.8,0.,4.8,0.,4.8
1981-08-30 09:06:57.250 ,4,0,0.,4.8,0.,4.8,0.,4.8,0.,4.8
1981-08-30 09:07:02.050 ,4,0,2.,4.8,0.,4.8,0.,4.8,0.,4.8
1981-08-30 09:07:06.850 ,4,0,0.,4.8,0.,4.8,0.,4.8,0.,4.8
1981-08-30 09:07:11.650 ,5,0,0.,4.8,0.,4.8,0.,4.8,0.,4.8
1981-08-30 09:07:16.450 ,5,0,1.,4.8,0.,4.8,0.,4.8,0.,4.8
1981-08-30 09:07:21.250 ,5,0,0.,4.8,0.,4.8,0.,4.8,0.,4.8
1981-08-30 09:07:26.050 ,5,0,1.,4.8,1.,4.8,0.,4.8,0.,4.8
1981-08-30 09:07:30.850 ,5,0,0.,4.8,0.,4.8,0.,4.8,0.,4.8
1981-08-30 09:07:35.650 ,5,0,0.,4.8,0.,4.8,0.,4.8,0.,4.8
1981-08-30 09:07:40.450 ,5,0,1.,4.8,0.,4.8,0.,4.8,0.,4.8
1981-08-30 09:07:45.250 ,5,0,0.,4.8,0.,4.8,0.,4.8,0.,4.8
1981-08-30 09:07:50.050 ,5,0,2.,4.8,0.,4.8,0.,4.8,0.,4.8
1981-08-30 09:07:54.850 ,5,0,1.,4.8,0.,4.8,1.,4.8,0.,4.8
1981-08-30 09:07:59.650 ,6,0,1.,4.8,0.,4.8,0.,4.8,0.,4.8
1981-08-30 09:08:04.450 ,6,0,0.,4.8,0.,4.8,0.,4.8,0.,4.8
1981-08-30 09:08:09.250 ,6,0,0.,4.8,1.,4.8,0.,4.8,0.,4.8
1981-08-30 09:08:14.050 ,6,0,1.,4.8,0.,4.8,0.,4.8,0.,4.8
1981-08-30 09:08:18.850 ,6,0,0.,4.8,0.,4.8,0.,4.8,0.,4.8
1981-08-30 09:08:23.650 ,6,0,0.,4.8,0.,4.8,0.,4.8,0.,4.8
1981-08-30 09:08:28.450 ,6,0,1.,4.8,0.,4.8,0.,4.8,0.,4.8
1981-08-30 09:08:33.250 ,6,0,0.,4.8,0.,4.8,0.,4.8,0.,4.8
1981-08-30 09:08:38.050 ,6,0,0.,4.8,0.,4.8,0.,4.8,0.,4.8
1981-08-30 09:08:42.850 ,6,0,0.,4.8,0.,4.8,0.,4.8,0.,4.8
1981-08-30 09:08:47.650 ,7,0,0.,4.8,0.,4.8,0.,4.8,0.,4.8
1981-08-30 09:08:52.450 ,7,0,0.,4.8,0.,4.8,0.,4.8,0.,4.8
1981-08-30 09:08:57.250 ,7,0,0.,4.8,0.,4.8,0.,4.8,0.,4.8
1981-08-30 09:09:02.050 ,7,0,1.,4.8,0.,4.8,0.,4.8,0.,4.8
1981-08-30 09:09:06.850 ,7,0,2.,4.8,0.,4.8,0.,4.8,0.,4.8
1981-08-30 09:09:11.650 ,7,0,0.,4.8,0.,4.8,0.,4.8,0.,4.8
1981-08-30 09:09:16.450 ,7,0,0.,4.8,0.,4.8,0.,4.8,0.,4.8
1981-08-30 09:09:21.250 ,7,0,0.,4.8,0.,4.8,1.,4.8,0.,4.8
1981-08-30 09:09:26.050 ,7,0,1.,4.8,0.,4.8,0.,4.8,0.,4.8
1981-08-30 09:09:30.850 ,7,0,0.,4.8,0.,4.8,0.,4.8,0.,4.8
1981-08-30 09:09:35.650 ,7,0,0.,4.8,0.,4.8,0.,4.8,0.,4.8
1981-08-30 09:09:40.450 ,7,0,0.,4.8,0.,4.8,0.,4.8,0.,4.8
1981-08-30 09:09:45.250 ,7,0,0.,4.8,0.,4.8,0.,4.8,0.,4.8
1981-08-30 09:09:50.050 ,7,0,0.,4.8,0.,4.8,0.,4.8,0.,4.8
1981-08-30 09:09:54.850 ,7,0,0.,4.8,0.,4.8,0.,4.8,0.,4.8
1981-08-30 09:09:59.650 ,7,0,0.,4.8,0.,4.8,0.,4.8,0.,4.8
1981-08-30 09:10:04.450 ,7,0,1.,4.8,0.,4.8,0.,4.8,0.,4.8
1981-08-30 09:10:09.250 ,7,0,0.,4.8,0.,4.8,0.,4.8,0.,4.8
1981-08-30 09:10:14.050 ,7,0,0.,4.8,0.,4.8,0.,4.8,0.,4.8
1981-08-30 09:10:18.850 ,7,0,0.,4.8,0.,4.8,0.,4.8,0.,4.8
1981-08-30 09:10:23.650 ,6,0,0.,4.8,0.,4.8,0.,4.8,0.,4.8
1981-08-30 09:10:28.450 ,6,0,1.,4.8,0.,4.8,0.,4.8,0.,4.8
1981-08-30 09:10:33.250 ,6,0,2.,4.8,0.,4.8,0.,4.8,0.,4.8
1981-08-30 09:10:38.050 ,6,0,0.,4.8,0.,4.8,0.,4.8,0.,4.8
1981-08-30 09:10:42.850 ,6,0,0.,4.8,0.,4.8,0.,4.8,0.,4.8
1981-08-30 09:10:47.650 ,6,0,0.,4.8,0.,4.8,0.,4.8,0.,4.8
1981-08-30 09:10:52.450 ,6,0,0.,4.8,0.,4.8,0.,4.8,1.,4.8
1981-08-30 09:10:57.250 ,6,0,0.,4.8,0.,4.8,0.,4.8,0.,4.8
1981-08-30 09:11:02.050 ,6,0,1.,4.8,0.,4.8,1.,4.8,0.,4.8
1981-08-30 09:11:06.850 ,6,0,0.,4.8,0.,4.8,0.,4.8,0.,4.8
1981-08-30 09:11:11.650 ,5,0,0.,4.8,0.,4.8,0.,4.8,0.,4.8
1981-08-30 09:11:16.450 ,5,0,0.,4.8,0.,4.8,0.,4.8,0.,4.8
1981-08-30 09:11:21.250 ,5,0,0.,4.8,0.,4.8,0.,4.8,0.,4.8
1981-08-30 09:11:26.050 ,5,0,1.,4.8,0.,4.8,0.,4.8,0.,4.8
1981-08-30 09:11:30.850 ,5,0,0.,4.8,0.,4.8,0.,4.8,0.,4.8
1981-08-30 09:11:35.650 ,5,0,1.,4.8,0.,4.8,1.,4.8,0.,4.8
1981-08-30 09:11:40.450 ,5,0,0.,4.8,0.,4.8,0.,4.8,0.,4.8
1981-08-30 09:11:45.250 ,5,0,1.,4.8,0.,4.8,0.,4.8,0.,4.8
1981-08-30 09:11:50.050 ,5,0,0.,4.8,0.,4.8,0.,4.8,0.,4.8
1981-08-30 09:11:54.850 ,5,0,2.,4.8,0.,4.8,0.,4.8,0.,4.8
1981-08-30 09:11:59.650 ,4,0,0.,4.8,0.,4.8,0.,4.8,0.,4.8
1981-08-30 09:12:04.450 ,4,0,1.,4.8,0.,4.8,0.,4.8,0.,4.8
1981-08-30 09:12:09.250 ,4,0,0.,4.8,0.,4.8,0.,4.8,0.,4.8
1981-08-30 09:12:14.050 ,4,0,0.,4.8,0.,4.8,0.,4.8,0.,4.8
1981-08-30 09:12:18.850 ,4,0,1.,4.8,0.,4.8,0.,4.8,0.,4.8
1981-08-30 09:12:23.650 ,4,0,0.,4.8,0.,4.8,0.,4.8,0.,4.8
1981-08-30 09:12:28.450 ,4,0,2.,4.8,0.,4.8,0.,4.8,0.,4.8
1981-08-30 09:12:33.250 ,4,0,0.,4.8,0.,4.8,0.,4.8,0.,4.8
1981-08-30 09:12:38.050 ,4,0,0.,4.8,0.,4.8,1.,4.8,0.,4.8
1981-08-30 09:12:42.850 ,4,0,2.,4.8,0.,4.8,0.,4.8,0.,4.8
1981-08-30 09:12:47.650 ,3,0,0.,4.8,0.,4.8,0.,4.8,0.,4.8
1981-08-30 09:12:52.450 ,3,0,0.,4.8,0.,4.8,0.,4.8,0.,4.8
1981-08-30 09:12:57.250 ,3,0,0.,4.8,0.,4.8,0.,4.8,0.,4.8
1981-08-30 09:13:02.050 ,3,0,0.,4.8,0.,4.8,0.,4.8,0.,4.8
1981-08-30 09:13:06.850 ,3,0,0.,4.8,0.,4.8,1.,4.8,0.,4.8
1981-08-30 09:13:11.650 ,3,0,0.,4.8,0.,4.8,0.,4.8,0.,4.8
1981-08-30 09:13:16.450 ,3,0,0.,4.8,0.,4.8,0.,4.8,0.,4.8
1981-08-30 09:13:21.250 ,3,0,0.,4.8,0.,4.8,0.,4.8,0.,4.8
1981-08-30 09:13:26.050 ,3,0,0.,4.8,0.,4.8,1.,4.8,0.,4.8
1981-08-30 09:13:30.850 ,3,0,0.,4.8,0.,4.8,1.,4.8,0.,4.8
1981-08-30 09:13:35.650 ,2,0,0.,4.8,0.,4.8,0.,4.8,0.,4.8
1981-08-30 09:13:40.450 ,2,0,0.,4.8,0.,4.8,0.,4.8,1.,4.8
1981-08-30 09:13:45.250 ,2,0,1.,4.8,0.,4.8,0.,4.8,0.,4.8
1981-08-30 09:13:50.050 ,2,0,0.,4.8,0.,4.8,0.,4.8,0.,4.8
1981-08-30 09:13:54.850 ,2,0,1.,4.8,0.,4.8,0.,4.8,0.,4.8
1981-08-30 09:13:59.650 ,2,0,0.,4.8,0.,4.8,0.,4.8,0.,4.8
1981-08-30 09:14:04.450 ,2,0,0.,4.8,0.,4.8,0.,4.8,0.,4.8
1981-08-30 09:14:09.250 ,2,0,0.,4.8,0.,4.8,0.,4.8,0.,4.8
1981-08-30 09:14:14.050 ,2,0,0.,4.8,0.,4.8,0.,4.8,0.,4.8
1981-08-30 09:14:18.850 ,2,0,1.,4.8,0.,4.8,0.,4.8,0.,4.8
1981-08-30 09:14:23.650 ,1,0,0.,4.8,0.,4.8,0.,4.8,0.,4.8
1981-08-30 09:14:28.450 ,1,0,0.,4.8,0.,4.8,1.,4.8,0.,4.8
1981-08-30 09:14:33.250 ,1,0,1.,4.8,0.,4.8,0.,4.8,0.,4.8
1981-08-30 09:14:38.050 ,1,0,0.,4.8,0.,4.8,1.,4.8,0.,4.8
1981-08-30 09:14:42.850 ,1,0,1.,4.8,0.,4.8,0.,4.8,0.,4.8
1981-08-30 09:14:47.650 ,1,0,0.,4.8,0.,4.8,0.,4.8,0.,4.8
1981-08-30 09:14:52.450 ,1,0,0.,4.8,0.,4.8,0.,4.8,0.,4.8
1981-08-30 09:14:57.250 ,1,0,0.,4.8,0.,4.8,0.,4.8,0.,4.8
1981-08-30 09:15:02.050 ,1,0,0.,4.8,0.,4.8,0.,4.8,0.,4.8
1981-08-30 09:15:06.850 ,1,0,2.,4.8,0.,4.8,0.,4.8,0.,4.8
1981-08-30 09:15:11.650 ,0,0,0.,4.8,0.,4.8,0.,4.8,0.,4.8
1981-08-30 09:15:16.450 ,0,0,1.,4.8,0.,4.8,0.,4.8,0.,4.8
1981-08-30 09:15:21.250 ,0,0,0.,4.8,0.,4.8,0.,4.8,0.,4.8
1981-08-30 09:15:26.050 ,0,0,0.,4.8,0.,4.8,0.,4.8,0.,4.8
1981-08-30 09:15:30.850 ,0,0,0.,4.8,0.,4.8,0.,4.8,0.,4.8
1981-08-30 09:15:35.650 ,0,0,0.,4.8,0.,4.8,0.,4.8,0.,4.8
1981-08-30 09:15:40.450 ,0,0,1.,4.8,0.,4.8,0.,4.8,0.,4.8
1981-08-30 09:15:45.250 ,0,0,0.,4.8,0.,4.8,0.,4.8,0.,4.8
1981-08-30 09:15:50.050 ,0,0,0.,4.8,0.,4.8,0.,4.8,0.,4.8
1981-08-30 09:15:54.850 ,0,0,1.,4.8,0.,4.8,0.,4.8,0.,4.8
1981-08-30 09:15:59.650 ,0,0,1.,4.8,0.,4.8,0.,4.8,0.,4.8
1981-08-30 09:16:04.450 ,0,0,2.,4.8,0.,4.8,0.,4.8,0.,4.8
1981-08-30 09:16:09.250 ,0,0,0.,4.8,0.,4.8,0.,4.8,0.,4.8
1981-08-30 09:16:14.050 ,0,0,0.,4.8,0.,4.8,1.,4.8,0.,4.8
1981-08-30 09:16:18.850 ,0,0,1.,4.8,1.,4.8,0.,4.8,0.,4.8
1981-08-30 09:16:23.650 ,0,0,1.,4.8,0.,4.8,0.,4.8,0.,4.8
1981-08-30 09:16:28.450 ,0,0,1.,4.8,0.,4.8,0.,4.8,0.,4.8
1981-08-30 09:16:33.250 ,0,0,0.,4.8,0.,4.8,0.,4.8,0.,4.8
1981-08-30 09:16:38.050 ,0,0,0.,4.8,0.,4.8,0.,4.8,0.,4.8
1981-08-30 09:16:42.850 ,0,0,1.,4.8,0.,4.8,0.,4.8,0.,4.8
1981-08-30 09:16:47.640 ,1,0,0.,4.8,0.,4.8,0.,4.8,0.,4.8
1981-08-30 09:16:52.450 ,1,0,0.,4.8,0.,4.8,0.,4.8,0.,4.8
1981-08-30 09:16:57.240 ,1,0,0.,4.8,0.,4.8,0.,4.8,0.,4.8
1981-08-30 09:17:02.040 ,1,0,1.,4.8,0.,4.8,0.,4.8,0.,4.8
1981-08-30 09:17:06.840 ,1,0,1.,4.8,0.,4.8,0.,4.8,0.,4.8
1981-08-30 09:17:11.650 ,1,0,0.,4.8,0.,4.8,0.,4.8,0.,4.8
1981-08-30 09:17:16.450 ,1,0,0.,4.8,0.,4.8,0.,4.8,0.,4.8
1981-08-30 09:17:21.240 ,1,0,0.,4.8,0.,4.8,0.,4.8,0.,4.8
1981-08-30 09:17:26.050 ,1,0,0.,4.8,0.,4.8,0.,4.8,0.,4.8
1981-08-30 09:17:30.850 ,1,0,0.,4.8,0.,4.8,0.,4.8,0.,4.8
1981-08-30 09:17:35.650 ,2,0,0.,4.8,0.,4.8,0.,4.8,0.,4.8
1981-08-30 09:17:40.450 ,2,0,0.,4.8,0.,4.8,0.,4.8,0.,4.8
1981-08-30 09:17:45.240 ,2,0,1.,4.8,0.,4.8,0.,4.8,0.,4.8
1981-08-30 09:17:50.050 ,2,0,0.,4.8,0.,4.8,0.,4.8,0.,4.8
1981-08-30 09:17:54.850 ,2,0,1.,4.8,0.,4.8,0.,4.8,0.,4.8
1981-08-30 09:17:59.650 ,2,0,0.,4.8,0.,4.8,0.,4.8,0.,4.8
1981-08-30 09:18:04.450 ,2,0,0.,4.8,0.,4.8,0.,4.8,0.,4.8
1981-08-30 09:18:09.240 ,2,0,1.,4.8,0.,4.8,1.,4.8,0.,4.8
1981-08-30 09:18:14.050 ,2,0,0.,4.8,0.,4.8,0.,4.8,0.,4.8
1981-08-30 09:18:18.850 ,2,0,0.,4.8,0.,4.8,0.,4.8,0.,4.8
1981-08-30 09:18:23.650 ,3,0,0.,4.8,0.,4.8,0.,4.8,0.,4.8
1981-08-30 09:18:28.450 ,3,0,2.,4.8,0.,4.8,0.,4.8,0.,4.8
1981-08-30 09:18:33.240 ,3,0,0.,4.8,0.,4.8,0.,4.8,0.,4.8
1981-08-30 09:18:38.050 ,3,0,1.,4.8,1.,4.8,0.,4.8,0.,4.8
1981-08-30 09:18:42.850 ,3,0,0.,4.8,0.,4.8,0.,4.8,0.,4.8
1981-08-30 09:18:47.650 ,4,0,0.,4.8,0.,4.8,0.,4.8,0.,4.8
1981-08-30 09:18:52.450 ,4,0,1.,4.8,0.,4.8,0.,4.8,0.,4.8
1981-08-30 09:18:57.240 ,4,0,2.,4.8,0.,4.8,0.,4.8,0.,4.8
1981-08-30 09:19:02.050 ,4,0,0.,4.8,0.,4.8,0.,4.8,0.,4.8
1981-08-30 09:19:06.850 ,4,0,0.,4.8,0.,4.8,0.,4.8,0.,4.8
1981-08-30 09:19:11.650 ,5,0,0.,4.8,0.,4.8,0.,4.8,0.,4.8
1981-08-30 09:19:16.450 ,5,0,0.,4.8,0.,4.8,0.,4.8,0.,4.8
1981-08-30 09:19:21.240 ,5,0,1.,4.8,0.,4.8,0.,4.8,0.,4.8
1981-08-30 09:19:26.050 ,5,0,0.,4.8,0.,4.8,0.,4.8,0.,4.8
1981-08-30 09:19:30.850 ,5,0,1.,4.8,0.,4.8,0.,4.8,0.,4.8
1981-08-30 09:19:35.650 ,6,0,1.,4.8,0.,4.8,0.,4.8,0.,4.8
1981-08-30 09:19:40.450 ,6,0,0.,4.8,0.,4.8,0.,4.8,0.,4.8
1981-08-30 09:19:45.240 ,6,0,0.,4.8,0.,4.8,0.,4.8,0.,4.8
1981-08-30 09:19:50.050 ,6,0,1.,4.8,0.,4.8,0.,4.8,0.,4.8
1981-08-30 09:19:54.850 ,6,0,0.,4.8,0.,4.8,0.,4.8,0.,4.8
1981-08-30 09:19:59.650 ,7,0,1.,4.8,0.,4.8,0.,4.8,0.,4.8
1981-08-30 09:20:04.450 ,7,0,0.,4.8,0.,4.8,0.,4.8,0.,4.8
1981-08-30 09:20:09.240 ,7,0,4.,4.8,0.,4.8,0.,4.8,0.,4.8
1981-08-30 09:20:14.050 ,7,0,0.,4.8,0.,4.8,0.,4.8,0.,4.8
1981-08-30 09:20:18.850 ,7,0,1.,4.8,0.,4.8,0.,4.8,0.,4.8
1981-08-30 09:20:23.650 ,7,0,1.,4.8,0.,4.8,0.,4.8,0.,4.8
1981-08-30 09:20:28.450 ,7,0,1.,4.8,0.,4.8,0.,4.8,0.,4.8
1981-08-30 09:20:33.240 ,7,0,1.,4.8,0.,4.8,0.,4.8,0.,4.8
1981-08-30 09:20:38.050 ,7,0,1.,4.8,0.,4.8,1.,4.8,0.,4.8
1981-08-30 09:20:42.850 ,7,0,0.,4.8,0.,4.8,0.,4.8,0.,4.8
1981-08-30 09:20:47.650 ,6,0,0.,4.8,0.,4.8,0.,4.8,0.,4.8
1981-08-30 09:20:52.450 ,6,0,0.,4.8,0.,4.8,0.,4.8,0.,4.8
1981-08-30 09:20:57.240 ,6,0,0.,4.8,0.,4.8,0.,4.8,0.,4.8
1981-08-30 09:21:02.050 ,6,0,0.,4.8,0.,4.8,1.,4.8,0.,4.8
1981-08-30 09:21:06.850 ,6,0,1.,4.8,0.,4.8,0.,4.8,0.,4.8
1981-08-30 09:21:11.650 ,5,0,0.,4.8,0.,4.8,0.,4.8,0.,4.8
1981-08-30 09:21:16.450 ,5,0,0.,4.8,0.,4.8,0.,4.8,0.,4.8
1981-08-30 09:21:21.240 ,5,0,0.,4.8,0.,4.8,0.,4.8,0.,4.8
1981-08-30 09:21:26.050 ,5,0,2.,4.8,0.,4.8,0.,4.8,0.,4.8
1981-08-30 09:21:30.850 ,5,0,0.,4.8,0.,4.8,0.,4.8,0.,4.8
1981-08-30 09:21:35.650 ,4,0,0.,4.8,0.,4.8,0.,4.8,0.,4.8
1981-08-30 09:21:40.450 ,4,0,1.,4.8,0.,4.8,0.,4.8,0.,4.8
1981-08-30 09:21:45.240 ,4,0,0.,4.8,0.,4.8,0.,4.8,0.,4.8
1981-08-30 09:21:50.050 ,4,0,0.,4.8,0.,4.8,0.,4.8,0.,4.8
1981-08-30 09:21:54.850 ,4,0,0.,4.8,0.,4.8,1.,4.8,0.,4.8
1981-08-30 09:21:59.650 ,3,0,0.,4.8,0.,4.8,0.,4.8,0.,4.8
1981-08-30 09:22:04.450 ,3,0,0.,4.8,0.,4.8,0.,4.8,0.,4.8
1981-08-30 09:22:09.240 ,3,0,1.,4.8,0.,4.8,0.,4.8,0.,4.8
1981-08-30 09:22:14.050 ,3,0,1.,4.8,0.,4.8,0.,4.8,0.,4.8
1981-08-30 09:22:18.850 ,3,0,0.,4.8,0.,4.8,0.,4.8,0.,4.8
1981-08-30 09:22:23.650 ,2,0,1.,4.8,0.,4.8,0.,4.8,0.,4.8
1981-08-30 09:22:28.450 ,2,0,1.,4.8,0.,4.8,0.,4.8,0.,4.8
1981-08-30 09:22:33.240 ,2,0,2.,4.8,0.,4.8,0.,4.8,0.,4.8
1981-08-30 09:22:38.050 ,2,0,0.,4.8,0.,4.8,0.,4.8,0.,4.8
1981-08-30 09:22:42.850 ,2,0,0.,4.8,0.,4.8,0.,4.8,0.,4.8
1981-08-30 09:22:47.650 ,1,0,1.,4.8,0.,4.8,0.,4.8,0.,4.8
1981-08-30 09:22:52.450 ,1,0,0.,4.8,0.,4.8,0.,4.8,0.,4.8
1981-08-30 09:22:57.240 ,1,0,0.,4.8,0.,4.8,0.,4.8,0.,4.8
1981-08-30 09:23:02.050 ,1,0,0.,4.8,0.,4.8,0.,4.8,0.,4.8
1981-08-30 09:23:06.850 ,1,0,1.,4.8,0.,4.8,0.,4.8,0.,4.8
1981-08-30 09:23:11.650 ,0,0,0.,4.8,0.,4.8,0.,4.8,0.,4.8
1981-08-30 09:23:16.450 ,0,0,0.,4.8,0.,4.8,0.,4.8,0.,4.8
1981-08-30 09:23:21.240 ,0,0,0.,4.8,0.,4.8,0.,4.8,0.,4.8
1981-08-30 09:23:26.050 ,0,0,0.,4.8,0.,4.8,0.,4.8,0.,4.8
1981-08-30 09:23:30.850 ,0,0,0.,4.8,0.,4.8,0.,4.8,0.,4.8
1981-08-30 09:23:35.650 ,0,0,1.,4.8,0.,4.8,0.,4.8,0.,4.8
1981-08-30 09:23:40.450 ,0,0,0.,4.8,0.,4.8,1.,4.8,0.,4.8
1981-08-30 09:23:45.240 ,0,0,0.,4.8,0.,4.8,0.,4.8,0.,4.8
1981-08-30 09:23:50.050 ,0,0,0.,4.8,0.,4.8,0.,4.8,0.,4.8
1981-08-30 09:23:54.850 ,0,0,1.,4.8,0.,4.8,0.,4.8,0.,4.8
1981-08-30 09:23:59.650 ,1,0,0.,4.8,0.,4.8,0.,4.8,0.,4.8
1981-08-30 09:24:04.450 ,1,0,1.,4.8,0.,4.8,0.,4.8,0.,4.8
1981-08-30 09:24:09.240 ,1,0,0.,4.8,0.,4.8,0.,4.8,0.,4.8
1981-08-30 09:24:14.050 ,1,0,0.,4.8,0.,4.8,0.,4.8,0.,4.8
1981-08-30 09:24:18.850 ,1,0,0.,4.8,0.,4.8,0.,4.8,0.,4.8
1981-08-30 09:24:23.650 ,2,0,0.,4.8,0.,4.8,0.,4.8,0.,4.8
1981-08-30 09:24:28.450 ,2,0,0.,4.8,0.,4.8,0.,4.8,0.,4.8
1981-08-30 09:24:33.240 ,2,0,1.,4.8,0.,4.8,0.,4.8,0.,4.8
1981-08-30 09:24:38.050 ,2,0,0.,4.8,0.,4.8,0.,4.8,0.,4.8
1981-08-30 09:24:42.850 ,2,0,1.,4.8,0.,4.8,0.,4.8,0.,4.8
1981-08-30 09:24:47.650 ,3,0,0.,4.8,0.,4.8,0.,4.8,0.,4.8
1981-08-30 09:24:52.450 ,3,0,1.,4.8,0.,4.8,1.,4.8,0.,4.8
1981-08-30 09:24:57.240 ,3,0,0.,4.8,0.,4.8,1.,4.8,0.,4.8
1981-08-30 09:25:02.050 ,3,0,1.,4.8,0.,4.8,0.,4.8,0.,4.8
1981-08-30 09:25:06.850 ,3,0,0.,4.8,0.,4.8,0.,4.8,0.,4.8
1981-08-30 09:25:11.650 ,3,0,0.,4.8,0.,4.8,0.,4.8,0.,4.8
1981-08-30 09:25:16.450 ,3,0,0.,4.8,0.,4.8,0.,4.8,0.,4.8
1981-08-30 09:25:21.240 ,3,0,0.,4.8,0.,4.8,0.,4.8,0.,4.8
1981-08-30 09:25:26.050 ,3,0,0.,4.8,0.,4.8,0.,4.8,0.,4.8
1981-08-30 09:25:30.850 ,3,0,0.,4.8,0.,4.8,0.,4.8,0.,4.8
1981-08-30 09:25:35.650 ,4,0,0.,4.8,0.,4.8,0.,4.8,0.,4.8
1981-08-30 09:25:40.450 ,4,0,0.,4.8,0.,4.8,0.,4.8,0.,4.8
1981-08-30 09:25:45.240 ,4,0,0.,4.8,0.,4.8,0.,4.8,0.,4.8
1981-08-30 09:25:50.050 ,4,0,0.,4.8,0.,4.8,0.,4.8,0.,4.8
1981-08-30 09:25:54.850 ,4,0,0.,4.8,0.,4.8,0.,4.8,0.,4.8
1981-08-30 09:25:59.650 ,4,0,1.,4.8,0.,4.8,0.,4.8,0.,4.8
1981-08-30 09:26:04.450 ,4,0,0.,4.8,0.,4.8,0.,4.8,0.,4.8
1981-08-30 09:26:09.240 ,4,0,0.,4.8,0.,4.8,1.,4.8,0.,4.8
1981-08-30 09:26:14.050 ,4,0,0.,4.8,0.,4.8,0.,4.8,0.,4.8
1981-08-30 09:26:18.850 ,4,0,1.,4.8,0.,4.8,0.,4.8,0.,4.8
1981-08-30 09:26:23.650 ,5,0,0.,4.8,0.,4.8,0.,4.8,0.,4.8
1981-08-30 09:26:28.450 ,5,0,2.,4.8,0.,4.8,0.,4.8,0.,4.8
1981-08-30 09:26:33.240 ,5,0,1.,4.8,0.,4.8,0.,4.8,0.,4.8
1981-08-30 09:26:38.050 ,5,0,1.,4.8,0.,4.8,1.,4.8,0.,4.8
1981-08-30 09:26:42.850 ,5,0,1.,4.8,0.,4.8,0.,4.8,0.,4.8
1981-08-30 09:26:47.650 ,5,0,0.,4.8,0.,4.8,0.,4.8,0.,4.8
1981-08-30 09:26:52.450 ,5,0,0.,4.8,0.,4.8,0.,4.8,0.,4.8
1981-08-30 09:26:57.240 ,5,0,0.,4.8,0.,4.8,0.,4.8,0.,4.8
1981-08-30 09:27:02.050 ,5,0,0.,4.8,0.,4.8,0.,4.8,0.,4.8
1981-08-30 09:27:06.850 ,5,0,0.,4.8,0.,4.8,0.,4.8,0.,4.8
1981-08-30 09:27:11.650 ,6,0,0.,4.8,0.,4.8,0.,4.8,0.,4.8
1981-08-30 09:27:16.450 ,6,0,0.,4.8,0.,4.8,0.,4.8,0.,4.8
1981-08-30 09:27:21.240 ,6,0,0.,4.8,0.,4.8,0.,4.8,0.,4.8
1981-08-30 09:27:26.050 ,6,0,1.,4.8,0.,4.8,0.,4.8,0.,4.8
1981-08-30 09:27:30.850 ,6,0,1.,4.8,0.,4.8,0.,4.8,0.,4.8
1981-08-30 09:27:35.650 ,6,0,0.,4.8,0.,4.8,0.,4.8,0.,4.8
1981-08-30 09:27:40.450 ,6,0,0.,4.8,0.,4.8,0.,4.8,0.,4.8
1981-08-30 09:27:45.240 ,6,0,0.,4.8,0.,4.8,0.,4.8,0.,4.8
1981-08-30 09:27:50.050 ,6,0,0.,4.8,0.,4.8,0.,4.8,0.,4.8
1981-08-30 09:27:54.850 ,6,0,0.,4.8,0.,4.8,0.,4.8,0.,4.8
1981-08-30 09:27:59.650 ,7,0,0.,4.8,0.,4.8,0.,4.8,0.,4.8
1981-08-30 09:28:04.450 ,7,0,0.,4.8,0.,4.8,0.,4.8,0.,4.8
1981-08-30 09:28:09.240 ,7,0,0.,4.8,0.,4.8,0.,4.8,0.,4.8
1981-08-30 09:28:14.050 ,7,0,0.,4.8,0.,4.8,1.,4.8,0.,4.8
1981-08-30 09:28:18.850 ,7,0,0.,4.8,0.,4.8,0.,4.8,0.,4.8
1981-08-30 09:28:23.650 ,7,0,1.,4.8,0.,4.8,0.,4.8,0.,4.8
1981-08-30 09:28:28.450 ,7,0,0.,4.8,0.,4.8,0.,4.8,0.,4.8
1981-08-30 09:28:33.240 ,7,0,0.,4.8,0.,4.8,0.,4.8,0.,4.8
1981-08-30 09:28:38.050 ,7,0,0.,4.8,0.,4.8,1.,4.8,0.,4.8
1981-08-30 09:28:42.850 ,7,0,0.,4.8,0.,4.8,0.,4.8,0.,4.8
1981-08-30 09:28:47.650 ,7,0,0.,4.8,0.,4.8,0.,4.8,0.,4.8
1981-08-30 09:28:52.450 ,7,0,0.,4.8,0.,4.8,0.,4.8,0.,4.8
1981-08-30 09:28:57.240 ,7,0,0.,4.8,0.,4.8,1.,4.8,0.,4.8
1981-08-30 09:29:02.050 ,7,0,0.,4.8,0.,4.8,0.,4.8,0.,4.8
1981-08-30 09:29:06.850 ,7,0,0.,4.8,0.,4.8,0.,4.8,0.,4.8
1981-08-30 09:29:11.650 ,7,0,0.,4.8,0.,4.8,1.,4.8,0.,4.8
1981-08-30 09:29:16.450 ,7,0,0.,4.8,0.,4.8,0.,4.8,0.,4.8
1981-08-30 09:29:21.240 ,7,0,0.,4.8,0.,4.8,0.,4.8,0.,4.8
1981-08-30 09:29:26.050 ,7,0,1.,4.8,0.,4.8,0.,4.8,0.,4.8
1981-08-30 09:29:30.850 ,7,0,0.,4.8,0.,4.8,0.,4.8,0.,4.8
1981-08-30 09:29:35.650 ,6,0,1.,4.8,0.,4.8,0.,4.8,0.,4.8
1981-08-30 09:29:40.450 ,6,0,0.,4.8,0.,4.8,0.,4.8,0.,4.8
1981-08-30 09:29:45.240 ,6,0,1.,4.8,0.,4.8,0.,4.8,0.,4.8
1981-08-30 09:29:50.050 ,6,0,1.,4.8,0.,4.8,1.,4.8,0.,4.8
1981-08-30 09:29:54.850 ,6,0,0.,4.8,0.,4.8,0.,4.8,0.,4.8
1981-08-30 09:29:59.650 ,6,0,1.,4.8,0.,4.8,0.,4.8,0.,4.8
1981-08-30 09:30:04.450 ,6,0,0.,4.8,0.,4.8,0.,4.8,0.,4.8
1981-08-30 09:30:09.240 ,6,0,0.,4.8,0.,4.8,0.,4.8,0.,4.8
1981-08-30 09:30:14.050 ,6,0,0.,4.8,0.,4.8,0.,4.8,0.,4.8
1981-08-30 09:30:18.850 ,6,0,1.,4.8,0.,4.8,1.,4.8,0.,4.8
1981-08-30 09:30:23.650 ,5,0,0.,4.8,0.,4.8,0.,4.8,0.,4.8
1981-08-30 09:30:28.450 ,5,0,0.,4.8,0.,4.8,0.,4.8,0.,4.8
1981-08-30 09:30:33.240 ,5,0,1.,4.8,0.,4.8,0.,4.8,0.,4.8
1981-08-30 09:30:38.050 ,5,0,2.,4.8,0.,4.8,0.,4.8,0.,4.8
1981-08-30 09:30:42.850 ,5,0,0.,4.8,0.,4.8,0.,4.8,0.,4.8
1981-08-30 09:30:47.650 ,5,0,0.,4.8,0.,4.8,0.,4.8,0.,4.8
1981-08-30 09:30:52.450 ,5,0,0.,4.8,0.,4.8,1.,4.8,0.,4.8
1981-08-30 09:30:57.240 ,5,0,0.,4.8,0.,4.8,0.,4.8,0.,4.8
1981-08-30 09:31:02.050 ,5,0,0.,4.8,0.,4.8,0.,4.8,0.,4.8
1981-08-30 09:31:06.850 ,5,0,0.,4.8,0.,4.8,0.,4.8,0.,4.8
1981-08-30 09:31:11.650 ,4,0,0.,4.8,0.,4.8,0.,4.8,0.,4.8
1981-08-30 09:31:16.450 ,4,0,1.,4.8,0.,4.8,1.,4.8,0.,4.8
1981-08-30 09:31:21.240 ,4,0,0.,4.8,0.,4.8,0.,4.8,0.,4.8
1981-08-30 09:31:26.050 ,4,0,0.,4.8,0.,4.8,0.,4.8,0.,4.8
1981-08-30 09:31:30.850 ,4,0,0.,4.8,0.,4.8,0.,4.8,0.,4.8
1981-08-30 09:31:35.650 ,4,0,0.,4.8,0.,4.8,0.,4.8,0.,4.8
1981-08-30 09:31:40.450 ,4,0,1.,4.8,0.,4.8,1.,4.8,0.,4.8
1981-08-30 09:31:45.240 ,4,0,1.,4.8,0.,4.8,0.,4.8,0.,4.8
1981-08-30 09:31:50.050 ,4,0,0.,4.8,0.,4.8,0.,4.8,0.,4.8
1981-08-30 09:31:54.850 ,4,0,0.,4.8,0.,4.8,0.,4.8,0.,4.8
1981-08-30 09:31:59.650 ,3,0,0.,4.8,0.,4.8,0.,4.8,0.,4.8
1981-08-30 09:32:04.450 ,3,0,0.,4.8,0.,4.8,0.,4.8,0.,4.8
1981-08-30 09:32:09.240 ,3,0,0.,4.8,0.,4.8,0.,4.8,0.,4.8
1981-08-30 09:32:14.050 ,3,0,0.,4.8,0.,4.8,0.,4.8,0.,4.8
1981-08-30 09:32:18.850 ,3,0,1.,4.8,0.,4.8,0.,4.8,0.,4.8
1981-08-30 09:32:23.650 ,3,0,0.,4.8,0.,4.8,0.,4.8,0.,4.8
1981-08-30 09:32:28.450 ,3,0,2.,4.8,0.,4.8,0.,4.8,0.,4.8
1981-08-30 09:32:33.240 ,3,0,0.,4.8,0.,4.8,0.,4.8,0.,4.8
1981-08-30 09:32:38.050 ,3,0,0.,4.8,0.,4.8,0.,4.8,0.,4.8
1981-08-30 09:32:42.850 ,3,0,0.,4.8,0.,4.8,1.,4.8,0.,4.8
1981-08-30 09:32:47.650 ,2,0,0.,4.8,0.,4.8,0.,4.8,0.,4.8
1981-08-30 09:32:52.450 ,2,0,0.,4.8,0.,4.8,0.,4.8,0.,4.8
1981-08-30 09:32:57.240 ,2,0,0.,4.8,0.,4.8,1.,4.8,0.,4.8
1981-08-30 09:33:02.050 ,2,0,0.,4.8,0.,4.8,0.,4.8,0.,4.8
1981-08-30 09:33:06.850 ,2,0,0.,4.8,0.,4.8,0.,4.8,0.,4.8
1981-08-30 09:33:11.650 ,2,0,0.,4.8,0.,4.8,0.,4.8,0.,4.8
1981-08-30 09:33:16.450 ,2,0,0.,4.8,0.,4.8,0.,4.8,0.,4.8